EW7639 Weather Reports


Display with metric or nautical units.
time (UTC)temp
F
wind
direction
speed
MPH
gust
MPH
rain 1hr
in
rain 24hr
in
rain mn
in
humidity
%
barometer
mb
20260505011518 51 180 0.0 4.0 0.00 0.00 0.00 55 1011.3
20260505010013 52 214 0.0 3.0 0.00 0.00 0.00 57 1011.2
20260505004551 52 192 0.0 5.0 0.00 0.00 0.00 60 1010.9
20260505003047 53 221 1.0 5.0 0.00 0.00 0.00 63 1010.6
20260505001525 53 217 3.0 9.0 0.00 0.00 0.00 66 1010.4
20260505000032 54 232 3.0 8.0 0.00 0.00 0.00 68 1010.1
20260504234612 55 286 3.0 9.0 0.00 0.00 0.00 69 1010.0
20260504233057 56 224 2.0 10.0 0.00 0.00 0.00 69 1009.8
20260504231539 57 269 3.0 11.0 0.00 0.00 0.00 68 1009.7
20260504230034 58 234 2.0 9.0 0.00 0.00 0.00 65 1009.6
20260504224529 58 252 2.0 16.0 0.00 0.00 0.00 63 1009.4
20260504223025 59 246 5.0 12.0 0.00 0.00 0.00 59 1009.4
20260504221525 60 243 7.0 20.0 0.00 0.00 0.00 55 1009.4
20260504220030 62 257 5.0 10.0 0.00 0.00 0.00 53 1009.4
20260504214512 62 199 4.0 10.0 0.00 0.00 0.00 52 1009.4
20260504213009 63 209 7.0 13.0 0.00 0.00 0.00 50 1009.3
20260504211546 64 215 8.0 16.0 0.00 0.00 0.00 48 1009.1
20260504210042 65 254 3.0 12.0 0.00 0.00 0.00 47 1009.4
20260504204535 65 203 6.0 18.0 0.00 0.00 0.00 46 1009.4
20260504203015 65 281 5.0 12.0 0.00 0.00 0.00 47 1009.1
20260504201556 66 231 5.0 13.0 0.00 0.00 0.00 47 1009.1
20260504200053 65 277 7.0 17.0 0.00 0.00 0.00 46 1009.3
20260504194529 66 234 6.0 15.0 0.00 0.00 0.00 45 1009.1
20260504193025 66 211 6.0 16.0 0.00 0.00 0.00 45 1009.2
20260504191503 66 212 7.0 17.0 0.00 0.00 0.00 44 1009.0
20260504190108 66 235 5.0 15.0 0.00 0.00 0.00 44 1009.2
20260504184537 66 207 6.0 13.0 0.00 0.00 0.00 43 1009.5
20260504183038 66 248 7.0 17.0 0.00 0.00 0.00 41 1009.6
20260504181517 66 247 6.0 18.0 0.00 0.00 0.00 41 1009.8
20260504180006 67 251 6.0 21.0 0.00 0.00 0.00 39 1009.8
20260504174552 67 216 6.0 17.0 0.00 0.00 0.00 36 1009.6
20260504173048 68 194 5.0 13.0 0.00 0.00 0.00 36 1009.8
20260504171548 67 209 7.0 25.0 0.00 0.00 0.00 34 1009.9
20260504120107 52 217 0.0 4.0 0.00 0.00 0.00 67 1012.2
20260504081548 32 288 0.0 0.0 0.00 0.00 0.00 26 1011.6
20260504060106 29 288 0.0 0.0 0.00 0.00 0.00 39 1011.1
20260504050015 31 288 0.0 0.0 0.00 0.00 0.00 45 1011.2
20260504044516 31 288 0.0 0.0 0.00 0.00 0.00 51 1011.3
20260504043101 31 288 0.0 0.0 0.00 0.00 0.00 54 1011.2
20260504041552 31 288 0.0 0.0 0.00 0.00 0.00 57 1011.2
20260504040034 32 288 0.0 0.0 0.00 0.00 0.00 59 1011.1
20260504034530 32 288 0.0 0.0 0.00 0.00 0.00 62 1011.1
20260504033011 33 288 0.0 0.0 0.00 0.00 0.00 63 1010.9
20260504031514 33 288 0.0 0.0 0.00 0.00 0.00 65 1010.8
20260504030050 34 288 0.0 0.0 0.00 0.00 0.00 67 1010.7
20260504024549 34 288 0.0 0.0 0.00 0.00 0.00 69 1010.6
20260504023029 35 288 0.0 0.0 0.00 0.00 0.00 71 1010.6
20260504021532 35 288 0.0 0.0 0.00 0.00 0.00 72 1010.6
20260504020009 36 288 0.0 0.0 0.00 0.00 0.00 73 1010.5
20260504014504 37 288 0.0 0.0 0.00 0.00 0.00 73 1010.4
20260504013043 38 288 0.0 0.0 0.00 0.00 0.00 72 1010.3